Content
SEND FEEDBACK

Daily
Averages
Monthly
Summary
Thailand

PHUKET, THAILAND


Home > Asia > Thailand
Elevation: 33 feet     Latitude: 08 07N     Longitude: 098 19E

WEATHER
 
SELECT A DAY
Number of Records: 224,393;   Date Range: 7/1/96 - 4/22/14
 
SHARE

PRINT THIS DATA

[ ← Previous Day ]
WEATHER ALMANAC - FEBRUARY 2, 2013
[ Next Day → ]
[ °C ]   °F
Weather ElementAverageHighLow
Temperature82.7 °F89.6 °F (2:00 pm)73.4 °F (6:00 am)
Dewpoint69 °F73.4 °F (9:00 pm)64.4 °F (2:00 pm)
Humidity64.3 %88 % (6:00 am)43 % (2:00 pm)
Barometer29.86 in29.95 in (9:00 am)29.77 in (3:30 pm)
Wind Speed6.9 mph16.1 mph (11:30 am)
Weather ElementAverage
Visibility5.9 mi
Wind DirectionENE (80.2 °)

Weather ElementTotal
Precipitation---
Cooling Degree Days16.5 (Base 65)
Growing Degree Days31.5 (Base 50)
Averaged from 49 records on February 2, 2013
WEATHER CONDITIONS BREAKOUT
WIND DIRECTION BREAKOUT
WEATHER BY HOUR - FEBRUARY 2, 2013
[ °C ]   °F
Local TimeTemperatureDewpointHumidityBarometerVisibilityWind DirectionWind SpeedGust SpeedPrecipitationEventsConditions
12:30 AM80.6 °F68.0 °F65 %29.89 in5.6 miENE (60°)8.1 mphScattered Clouds
1:00 AM80.0 °F72.0 °F69 %29.86 in6.0 miNE (50°)5.8 mphScattered Clouds
1:00 AM80.6 °F68.0 °F65 %29.86 in5.6 miNE (50°)5.8 mphScattered Clouds
1:30 AM80.6 °F69.8 °F70 %29.86 in5.6 miNE (50°)4.6 mphScattered Clouds
2:00 AM78.8 °F68.0 °F69 %29.86 in5.6 miNE (50°)4.6 mphScattered Clouds
2:30 AM78.8 °F69.8 °F74 %29.86 in5.6 miENE (60°)3.5 mphScattered Clouds
3:00 AM78.8 °F69.8 °F74 %29.83 in5.6 miNE (40°)3.5 mphScattered Clouds
3:30 AM78.8 °F69.8 °F74 %29.83 in5.6 miVariable3.5 mphScattered Clouds
4:00 AM77.0 °F69.8 °F78 %29.83 in5.6 miCalmScattered Clouds
4:30 AM77.0 °F69.8 °F78 %29.86 in5.6 miCalmScattered Clouds
5:30 AM75.2 °F69.8 °F83 %29.86 in5.6 miCalmScattered Clouds
6:00 AM73.4 °F69.8 °F88 %29.86 in5.6 miCalmMostly Cloudy
6:30 AM75.2 °F69.8 °F83 %29.86 in5.6 miNE (50°)4.6 mphMostly Cloudy
7:00 AM75.0 °F71.0 °F85 %29.83 in6.0 miENE (60°)4.6 mphMist
7:00 AM75.2 °F69.8 °F83 %29.89 in5.6 miENE (60°)4.6 mphMostly Cloudy
7:30 AM77.0 °F69.8 °F78 %29.89 in5.6 miNE (50°)3.5 mphMostly Cloudy
8:00 AM78.8 °F71.6 °F78 %29.92 in5.6 miNNE (30°)4.6 mphMostly Cloudy
8:30 AM80.6 °F69.8 °F70 %29.92 in6.2 miNNE (30°)6.9 mphScattered Clouds
9:00 AM82.4 °F69.8 °F66 %29.95 in6.2 miEast (80°)9.2 mphMostly Cloudy
9:30 AM84.2 °F69.8 °F62 %29.95 in6.2 miEast (90°)8.1 mphMostly Cloudy
10:00 AM84.2 °F69.8 °F62 %29.95 in6.2 miEast (90°)8.1 mphMostly Cloudy
10:30 AM86.0 °F69.8 °F58 %29.95 in6.2 miEast (90°)12.7 mphMostly Cloudy
11:00 AM87.8 °F68.0 °F52 %29.95 in6.2 miEast (90°)11.5 mphMostly Cloudy
11:30 AM87.8 °F66.2 °F49 %29.92 in6.2 miEast (100°)16.1 mphMostly Cloudy
12:00 PM87.8 °F66.2 °F49 %29.89 in6.2 miEast (100°)13.8 mphMostly Cloudy
12:30 PM87.8 °F66.2 °F49 %29.86 in6.2 miESE (110°)15.0 mphMostly Cloudy
1:00 PM88.0 °F69.0 °F44 %29.86 in6.0 miEast (90°)9.2 mphScattered Clouds
1:00 PM87.8 °F66.2 °F49 %29.86 in6.2 miEast (90°)11.5 mphMostly Cloudy
1:30 PM87.8 °F66.2 °F49 %29.83 in6.2 miEast (90°)16.1 mphMostly Cloudy
2:00 PM89.6 °F64.4 °F43 %29.83 in6.2 miEast (90°)13.8 mphMostly Cloudy
2:30 PM89.6 °F66.2 °F46 %29.80 in6.2 miEast (90°)12.7 mphMostly Cloudy
3:00 PM89.6 °F66.2 °F46 %29.80 in6.2 miEast (90°)11.5 mphMostly Cloudy
3:30 PM89.6 °F64.4 °F43 %29.77 in6.2 miEast (90°)11.5 mphMostly Cloudy
4:00 PM89.6 °F66.2 °F46 %29.77 in6.2 miESE (110°)11.5 mphMostly Cloudy
4:30 PM89.6 °F68.0 °F49 %29.77 in6.2 miEast (100°)11.5 mphMostly Cloudy
5:00 PM89.6 °F68.0 °F49 %29.77 in6.2 miESE (120°)11.5 mphMostly Cloudy
5:30 PM87.8 °F66.2 °F49 %29.80 in6.2 miEast (100°)11.5 mphMostly Cloudy
6:30 PM86.0 °F66.2 °F51 %29.80 in6.2 miEast (100°)8.1 mphMostly Cloudy
7:00 PM87.0 °F69.0 °F47 %29.79 in6.0 miCalmScattered Clouds
7:00 PM84.2 °F68.0 °F58 %29.83 in6.2 miWNW (300°)5.8 mphMostly Cloudy
7:30 PM82.4 °F71.6 °F70 %29.86 in6.2 miNW (310°)6.9 mphMostly Cloudy
8:00 PM82.4 °F71.6 °F70 %29.89 in6.2 miWest (270°)5.8 mphMostly Cloudy
8:30 PM82.4 °F71.6 °F70 %29.89 in5.6 miNW (320°)3.5 mphMostly Cloudy
9:00 PM80.6 °F73.4 °F79 %29.89 in5.6 miCalmMostly Cloudy
9:30 PM78.8 °F73.4 °F83 %29.89 in5.6 miVariable2.3 mphMostly Cloudy
10:00 PM78.8 °F73.4 °F83 %29.92 in5.6 miCalmMostly Cloudy
10:30 PM78.8 °F73.4 °F83 %29.92 in5.6 miCalmMostly Cloudy
11:00 PM78.8 °F69.8 °F74 %29.92 in5.6 miVariable2.3 mphMostly Cloudy
11:30 PM82.4 °F66.2 °F58 %29.89 in5.6 miEast (100°)8.1 mphMostly Cloudy
Hourly data recorded from VTSP, located 0.94 miles away from Phuket, Thailand







STORIES FROM OUR PARTNERS